Regional Weather Roundup
Issued by NWS

Home | Current Version | Previous Version | Graphics & Text | Print | Product List | Glossary On
Versions: 1 2 3 4 5 6 7 8 9 10 11 12 13 14 15 16 17 18 19 20 21 22 23 24 25 26 27 28 29 30 31 32 33 34 35 36 37 38 39 40 41 42 43 44 45 46 47 48 49 50
000
ASUS43 KIND 030059
RWRIN

WEATHER ROUNDUP FOR INDIANA
NATIONAL WEATHER SERVICE INDIANAPOLIS IN
900 PM EDT WED SEP 02 2015

NOTE: "FAIR" INDICATES FEW OR NO CLOUDS BELOW 12,000 FEET WITH NO
SIGNIFICANT WEATHER AND/OR OBSTRUCTIONS TO VISIBILITY.

* - STATION DOES NOT REPORT WEATHER SUCH AS PRECIPITATION OR FOG.

+ - STATION NOT QUALITY CONTROLLED BY THE NATIONAL WEATHER SERVICE.
    USE DATA WITH CAUTION...ESPECIALLY DEWPOINT AND RELATIVE
    HUMIDITY OBSERVATIONS.

INZ001>003-010>013-019-020-030200-
NORTHWEST INDIANA

CITY           SKY/WX    TMP DP  RH WIND       PRES   REMARKS
GARY /AIRPORT/ MOCLDY    81  68  65 SW6       29.97R
KNOX *+        MOCLDY    72  72 100 S3        29.98S
MONTICELLO +   PTCLDY    78  72  82 CALM      29.98S
RENSSELAER +   PTCLDY    77  73  88 S5        29.99R

$$

LMZ046-743>745-030200-
SOUTHERN LAKE MICHIGAN

STATION/POSITION TIME  TEMP    WIND        PRES    WAVE
                       AIR SEA DIR/SP/G            HT
                 (UTC) (F)     (DEG/KT/KT) (MB)    (FT)
BURNS HARBOR     0000   83     230/  6/  9 1014.9S
MICHIGAN CITY    0000   79      70/  3/  4   N/A
5NW MICH CITY    0000   79 76  100/  6/  8   N/A     0

$$

INZ004-005-014>016-021>024-030200-
NORTH CENTRAL INDIANA

CITY           SKY/WX    TMP DP  RH WIND       PRES   REMARKS
ELKHART        CLEAR     75  72  88 CALM      29.99S
GOSHEN         LGT RAIN  76  70  82 CALM      29.99S
SOUTH BEND     CLOUDY    78  70  76 CALM      29.99S

$$

INZ006>009-017-018-025>027-030200-
NORTHEAST INDIANA

CITY           SKY/WX    TMP DP  RH WIND       PRES   REMARKS
ANGOLA *+      CLEAR     75  72  88 CALM      30.01R
FORT WAYNE     MOCLDY    76  70  82 S3        30.01R

$$

INZ028-029-035-036-043>045-051>053-030200-
WEST CENTRAL INDIANA

CITY           SKY/WX    TMP DP  RH WIND       PRES   REMARKS
CRAWFORDSVL +  PTCLDY    72  66  81 SW3       30.02
GREENCASTLE +  CLEAR     73  66  78 CALM      30.03R
LAFAYETTE      PTCLDY    77  69  76 S3        29.99R
TERRE HAUTE    PTCLDY    74  69  85 CALM      30.01R

$$

INZ030>032-037>040-046>048-054>057-064-065-030200-
CENTRAL INDIANA

CITY           SKY/WX    TMP DP  RH WIND       PRES   REMARKS
COLUMBUS       CLEAR     75  68  78 CALM      30.02R
FRANKFORT +    PTCLDY    75  70  83 S3        30.03S
INDIANAPOLIS   PTCLDY    78  67  68 SW6       30.01R
-EAGLE CREEK   PTCLDY    82  68  62 CALM      30.01R
KOKOMO *+      PTCLDY    81  66  61 W7        30.01R
MT COMFORT *+  CLEAR     75  66  73 CALM      30.03R
SHELBYVILLE    CLEAR     78  68  71 SW5       30.02R
ZIONSVILLE +   PTCLDY    74  68  82 CALM      30.03R

$$

INZ033-034-041-042-049-050-058-059-030200-
EAST CENTRAL INDIANA

CITY           SKY/WX    TMP DP  RH WIND       PRES   REMARKS
MUNCIE         CLEAR     76  66  71 SW5       30.03R

$$

INZ060-061-067>069-081>083-085>088-030200-
SOUTHWEST INDIANA

CITY           SKY/WX    TMP DP  RH WIND       PRES   REMARKS
EVANSVILLE     CLEAR     81  67  62 CALM      30.01R
HUNTINGBURG *+ CLEAR     79  66  65 CALM      30.01S

$$

INZ062-063-066-070>080-084-089>092-030200-
SOUTH CENTRAL AND SOUTHEAST INDIANA

CITY           SKY/WX    TMP DP  RH WIND       PRES   REMARKS
BLOOMINGTON    CLEAR     74  71  91 CALM      30.03R
SEYMOUR +      CLEAR     75  68  78 CALM      30.01S

$$



USA.gov is the U.S. government's official web portal to all federal, state and local government web resources and services.